Location: Albany
(35.0000°S, 118.0000°E)
Time: 15:38:21
(UTC-04:00)

Cosmos 1626 - Visible Passes

Search period start: 26 April 2017 00:00
Search period end: 06 May 2017 00:00
Orbit: 498 x 500 km, 82.5° (Epoch: 25 April)

Date Brightness Start Highest point End Pass type
(mag) Time Alt. Az. Time Alt. Az. Time Alt. Az.
26 Apr 2.1 06:11:04 10° N 06:14:50 86° E 06:18:38 10° S visible
26 Apr 2.2 17:42:39 10° SSW 17:46:22 52° W 17:50:01 10° N visible
27 Apr 2.2 05:50:53 10° N 05:54:34 56° E 05:58:18 10° SSE visible
27 Apr 2.0 17:22:18 10° S 17:26:07 81° W 17:29:52 10° N visible
28 Apr 5.6 07:08:53 10° W 07:09:51 11° WSW 07:10:50 10° WSW visible
28 Apr 2.4 17:02:02 10° S 17:05:49 67° E 17:09:34 10° NNE visible
29 Apr 5.3 06:47:08 10° WNW 06:49:27 16° WSW 06:51:48 10° SW visible
29 Apr 3.3 16:43:10 19° SSE 16:45:31 44° E 16:49:08 10° NNE visible
30 Apr 4.8 06:26:07 10° NW 06:29:05 22° WSW 06:32:05 10° SSW visible
30 Apr 4.0 16:25:15 30° E 16:25:15 30° E 16:28:31 10° NE visible
30 Apr 3.9 18:00:03 13° W 18:00:12 13° W 18:01:59 10° WNW visible
01 May 4.2 06:05:21 10° NW 06:08:43 31° W 06:12:09 10° SSW visible
01 May 5.1 16:07:03 13° ENE 16:07:03 13° ENE 16:07:43 10° NE visible
01 May 4.1 17:41:50 14° WNW 17:41:50 14° WNW 17:42:41 10° NW visible
